Time,TemperatureF,DewpointF,PressureIn,WindDirection,WindDirectionDegrees,WindSpeedMPH,WindSpeedGustMPH,Humidity,HourlyPrecipIn,Conditions,Clouds,dailyrainin,SoftwareType,DateUTC
2013-04-18 00:03:00,47.0,40.0,30.23,ENE,59,0.0,0.0,76,0.00,,,0.21,,2013-04-18 04:03:00,
2013-04-18 00:13:00,47.0,40.0,30.23,ENE,59,0.0,0.0,76,0.00,,,0.21,,2013-04-18 04:13:00,
2013-04-18 00:23:00,46.0,40.0,30.22,ENE,59,0.0,0.0,78,0.00,,,0.18,,2013-04-18 04:23:00,
2013-04-18 00:33:00,46.0,40.0,30.22,ENE,59,0.0,0.0,78,0.00,,,0.18,,2013-04-18 04:33:00,
2013-04-18 00:43:00,45.0,39.0,30.21,ENE,59,0.0,2.0,79,0.00,,,0.18,,2013-04-18 04:43:00,
2013-04-18 00:53:00,45.0,39.0,30.21,ENE,59,0.0,2.0,79,0.00,,,0.18,,2013-04-18 04:53:00,
2013-04-18 01:02:00,45.0,39.0,30.21,ENE,59,0.0,2.0,79,0.00,,,0.18,,2013-04-18 05:02:00,
2013-04-18 01:12:00,45.0,40.0,30.21,ENE,59,0.0,3.0,81,0.00,,,0.10,,2013-04-18 05:12:00,
2013-04-18 01:22:00,45.0,40.0,30.21,ENE,59,0.0,3.0,81,0.00,,,0.10,,2013-04-18 05:22:00,
2013-04-18 01:33:00,45.0,40.0,30.21,ENE,59,0.0,3.0,81,0.00,,,0.10,,2013-04-18 05:33:00,
2013-04-18 01:42:00,46.0,41.0,30.21,East,95,2.0,2.0,81,0.00,,,0.01,,2013-04-18 05:42:00,
2013-04-18 01:52:00,46.0,41.0,30.21,East,95,2.0,2.0,81,0.00,,,0.01,,2013-04-18 05:52:00,
2013-04-18 02:02:00,46.0,41.0,30.21,East,95,2.0,2.0,81,0.00,,,0.01,,2013-04-18 06:02:00,
2013-04-18 02:12:00,47.0,41.0,30.21,ESE,107,0.0,3.0,79,0.00,,,0.00,,2013-04-18 06:12:00,
2013-04-18 02:22:00,47.0,41.0,30.21,ESE,107,0.0,3.0,79,0.00,,,0.00,,2013-04-18 06:22:00,
2013-04-18 02:32:00,47.0,41.0,30.21,ESE,107,0.0,3.0,79,0.00,,,0.00,,2013-04-18 06:32:00,
2013-04-18 02:42:00,48.0,41.0,30.20,NE,43,2.0,5.0,76,0.00,,,0.00,,2013-04-18 06:42:00,
2013-04-18 02:52:00,48.0,41.0,30.20,NE,43,2.0,5.0,76,0.00,,,0.00,,2013-04-18 06:52:00,
2013-04-18 03:02:00,48.0,41.0,30.20,NE,43,2.0,5.0,76,0.00,,,0.00,,2013-04-18 07:02:00,
2013-04-18 03:12:00,48.0,41.0,30.20,NNE,27,0.0,4.0,76,0.00,,,0.00,,2013-04-18 07:12:00,
2013-04-18 03:22:00,48.0,41.0,30.20,NNE,27,0.0,4.0,76,0.00,,,0.00,,2013-04-18 07:22:00,
2013-04-18 03:32:00,48.0,41.0,30.20,NNE,27,0.0,4.0,76,0.00,,,0.00,,2013-04-18 07:32:00,
2013-04-18 03:42:00,48.0,42.0,30.19,NE,45,0.0,1.0,79,0.00,,,0.00,,2013-04-18 07:42:00,
2013-04-18 03:53:00,48.0,42.0,30.19,NE,45,0.0,1.0,79,0.00,,,0.00,,2013-04-18 07:53:00,
2013-04-18 04:02:00,48.0,42.0,30.19,NE,45,0.0,1.0,79,0.00,,,0.00,,2013-04-18 08:02:00,
2013-04-18 04:12:00,50.0,44.0,30.19,South,175,0.0,6.0,79,0.00,,,0.00,,2013-04-18 08:12:00,
2013-04-18 04:22:00,50.0,44.0,30.19,South,175,0.0,6.0,79,0.00,,,0.00,,2013-04-18 08:22:00,
2013-04-18 04:32:00,50.0,44.0,30.19,South,175,0.0,6.0,79,0.00,,,0.00,,2013-04-18 08:32:00,
2013-04-18 04:42:00,52.0,47.0,30.17,ESE,102,5.0,7.0,84,0.00,,,0.00,,2013-04-18 08:42:00,
2013-04-18 04:52:00,52.0,47.0,30.17,ESE,102,5.0,7.0,84,0.00,,,0.00,,2013-04-18 08:52:00,
2013-04-18 05:02:00,52.0,47.0,30.17,ESE,102,5.0,7.0,84,0.00,,,0.00,,2013-04-18 09:02:00,
2013-04-18 05:12:00,55.0,47.0,30.17,ESE,109,4.0,10.0,75,0.00,,,0.00,,2013-04-18 09:12:00,
2013-04-18 05:22:00,55.0,47.0,30.17,ESE,109,4.0,10.0,75,0.00,,,0.00,,2013-04-18 09:22:00,
2013-04-18 05:33:00,55.0,47.0,30.17,ESE,109,4.0,10.0,75,0.00,,,0.00,,2013-04-18 09:33:00,
2013-04-18 05:43:00,57.0,45.0,30.18,ESE,115,2.0,13.0,63,0.00,,,0.00,,2013-04-18 09:43:00,
2013-04-18 05:53:00,57.0,45.0,30.18,ESE,115,2.0,13.0,63,0.00,,,0.00,,2013-04-18 09:53:00,
2013-04-18 06:03:00,57.0,45.0,30.18,ESE,115,2.0,13.0,63,0.00,,,0.00,,2013-04-18 10:03:00,
2013-04-18 06:12:00,58.0,43.0,30.18,SSW,198,0.0,8.0,57,0.00,,,0.00,,2013-04-18 10:12:00,
2013-04-18 06:23:00,58.0,43.0,30.18,SSW,198,0.0,8.0,57,0.00,,,0.00,,2013-04-18 10:23:00,
2013-04-18 06:32:00,58.0,43.0,30.18,SSW,198,0.0,8.0,57,0.00,,,0.00,,2013-04-18 10:32:00,
2013-04-18 06:42:00,58.0,43.0,30.18,SSW,198,0.0,8.0,57,0.00,,,0.00,,2013-04-18 10:42:00,
2013-04-18 06:52:00,58.0,41.0,30.18,ENE,76,2.0,10.0,53,0.00,,,0.00,,2013-04-18 10:52:00,
2013-04-18 07:02:00,58.0,41.0,30.18,ENE,76,2.0,10.0,53,0.00,,,0.00,,2013-04-18 11:02:00,
2013-04-18 07:12:00,58.0,40.0,30.18,East,83,0.0,13.0,51,0.00,,,0.00,,2013-04-18 11:12:00,
2013-04-18 07:22:00,58.0,40.0,30.18,East,83,0.0,13.0,51,0.00,,,0.00,,2013-04-18 11:22:00,
2013-04-18 07:32:00,58.0,40.0,30.18,East,83,0.0,13.0,51,0.00,,,0.00,,2013-04-18 11:32:00,
2013-04-18 07:42:00,58.0,40.0,30.19,SE,143,4.0,20.0,51,0.00,,,0.00,,2013-04-18 11:42:00,
2013-04-18 07:52:00,58.0,40.0,30.19,SE,143,4.0,20.0,51,0.00,,,0.00,,2013-04-18 11:52:00,
2013-04-18 08:02:00,58.0,40.0,30.19,SE,143,4.0,20.0,51,0.00,,,0.00,,2013-04-18 12:02:00,
2013-04-18 08:12:00,58.0,40.0,30.19,ENE,70,2.0,20.0,52,0.00,,,0.00,,2013-04-18 12:12:00,
2013-04-18 08:22:00,58.0,40.0,30.19,ENE,70,2.0,20.0,52,0.00,,,0.00,,2013-04-18 12:22:00,
2013-04-18 08:32:00,58.0,40.0,30.19,ENE,70,2.0,20.0,52,0.00,,,0.00,,2013-04-18 12:32:00,
2013-04-18 08:42:00,58.0,40.0,30.19,SE,127,3.0,16.0,51,0.00,,,0.00,,2013-04-18 12:42:00,
2013-04-18 08:52:00,58.0,40.0,30.19,SE,127,3.0,16.0,51,0.00,,,0.00,,2013-04-18 12:52:00,
2013-04-18 09:02:00,58.0,40.0,30.19,SE,127,3.0,16.0,51,0.00,,,0.00,,2013-04-18 13:02:00,
2013-04-18 09:12:00,58.0,40.0,30.18,South,173,0.0,19.0,52,0.00,,,0.00,,2013-04-18 13:12:00,
2013-04-18 09:22:00,58.0,40.0,30.18,South,173,0.0,19.0,52,0.00,,,0.00,,2013-04-18 13:22:00,
2013-04-18 09:32:00,58.0,40.0,30.18,South,173,0.0,19.0,52,0.00,,,0.00,,2013-04-18 13:32:00,
2013-04-18 09:43:00,59.0,41.0,30.19,SSE,167,2.0,15.0,52,0.00,,,0.00,,2013-04-18 13:43:00,
2013-04-18 09:53:00,59.0,41.0,30.19,SSE,167,2.0,15.0,52,0.00,,,0.00,,2013-04-18 13:53:00,
2013-04-18 10:02:00,59.0,41.0,30.19,SSE,167,2.0,15.0,52,0.00,,,0.00,,2013-04-18 14:02:00,
2013-04-18 10:12:00,59.0,41.0,30.19,SSE,152,4.0,10.0,51,0.00,,,0.00,,2013-04-18 14:12:00,
2013-04-18 10:22:00,59.0,41.0,30.19,SSE,152,4.0,10.0,51,0.00,,,0.00,,2013-04-18 14:22:00,
2013-04-18 10:32:00,59.0,41.0,30.19,SSE,152,4.0,10.0,51,0.00,,,0.00,,2013-04-18 14:32:00,
2013-04-18 10:43:00,59.0,41.0,30.19,SE,146,2.0,9.0,52,0.00,,,0.00,,2013-04-18 14:43:00,
2013-04-18 10:52:00,59.0,41.0,30.19,SE,146,2.0,9.0,52,0.00,,,0.00,,2013-04-18 14:52:00,
2013-04-18 11:03:00,59.0,41.0,30.19,SE,146,2.0,9.0,52,0.00,,,0.00,,2013-04-18 15:03:00,
2013-04-18 11:12:00,59.0,41.0,30.19,SE,146,2.0,9.0,52,0.00,,,0.00,,2013-04-18 15:12:00,
2013-04-18 11:22:00,59.0,42.0,30.18,ESE,111,6.0,9.0,53,0.00,,,0.00,,2013-04-18 15:22:00,
2013-04-18 11:33:00,59.0,42.0,30.18,ESE,111,6.0,9.0,53,0.00,,,0.00,,2013-04-18 15:33:00,
2013-04-18 11:43:00,60.0,45.0,30.17,SSE,157,0.0,12.0,58,0.00,,,0.00,,2013-04-18 15:43:00,
2013-04-18 11:53:00,60.0,45.0,30.17,SSE,157,0.0,12.0,58,0.00,,,0.00,,2013-04-18 15:53:00,
2013-04-18 12:03:00,60.0,45.0,30.17,SSE,157,0.0,12.0,58,0.00,,,0.00,,2013-04-18 16:03:00,
2013-04-18 12:13:00,60.0,47.0,30.17,East,79,2.0,8.0,63,0.00,,,0.00,,2013-04-18 16:13:00,
2013-04-18 12:23:00,60.0,47.0,30.17,East,79,2.0,8.0,63,0.00,,,0.00,,2013-04-18 16:23:00,
2013-04-18 12:33:00,60.0,47.0,30.17,East,79,2.0,8.0,63,0.00,,,0.00,,2013-04-18 16:33:00,
2013-04-18 12:43:00,60.0,50.0,30.16,NNE,22,2.0,12.0,69,0.00,,,0.00,,2013-04-18 16:43:00,
2013-04-18 12:53:00,60.0,50.0,30.16,NNE,22,2.0,12.0,69,0.00,,,0.00,,2013-04-18 16:53:00,
2013-04-18 13:03:00,60.0,50.0,30.16,NNE,22,2.0,12.0,69,0.00,,,0.00,,2013-04-18 17:03:00,
2013-04-18 13:12:00,60.0,51.0,30.14,SSW,192,2.0,11.0,72,0.00,,,0.00,,2013-04-18 17:12:00,
2013-04-18 13:22:00,60.0,51.0,30.14,SSW,192,2.0,11.0,72,0.00,,,0.00,,2013-04-18 17:22:00,
2013-04-18 13:33:00,60.0,51.0,30.14,SSW,192,2.0,11.0,72,0.00,,,0.00,,2013-04-18 17:33:00,
2013-04-18 13:43:00,59.0,51.0,30.13,East,99,8.0,11.0,75,0.00,,,0.00,,2013-04-18 17:43:00,
2013-04-18 13:52:00,59.0,51.0,30.13,East,99,8.0,11.0,75,0.00,,,0.00,,2013-04-18 17:52:00,
2013-04-18 14:02:00,59.0,51.0,30.13,East,99,8.0,11.0,75,0.00,,,0.00,,2013-04-18 18:02:00,
2013-04-18 14:13:00,60.0,53.0,30.12,SSE,161,1.0,8.0,78,0.00,,,0.00,,2013-04-18 18:13:00,
2013-04-18 14:23:00,60.0,53.0,30.12,SSE,161,1.0,8.0,78,0.00,,,0.00,,2013-04-18 18:23:00,
2013-04-18 14:32:00,60.0,53.0,30.12,SSE,161,1.0,8.0,78,0.00,,,0.00,,2013-04-18 18:32:00,
2013-04-18 14:43:00,59.0,53.0,30.11,NNE,28,4.0,9.0,80,0.00,,,0.00,,2013-04-18 18:43:00,
2013-04-18 14:52:00,59.0,53.0,30.11,NNE,28,4.0,9.0,80,0.00,,,0.00,,2013-04-18 18:52:00,
2013-04-18 15:02:00,59.0,53.0,30.11,NNE,28,4.0,9.0,80,0.00,,,0.00,,2013-04-18 19:02:00,
2013-04-18 15:12:00,59.0,53.0,30.11,NNE,28,4.0,9.0,80,0.00,,,0.00,,2013-04-18 19:12:00,
2013-04-18 15:22:00,59.0,54.0,30.10,SSW,195,2.0,6.0,82,0.00,,,0.00,,2013-04-18 19:22:00,
2013-04-18 15:32:00,59.0,54.0,30.10,SSW,195,2.0,6.0,82,0.00,,,0.00,,2013-04-18 19:32:00,
2013-04-18 15:43:00,59.0,55.0,30.09,SE,139,4.0,9.0,86,0.01,,,0.01,,2013-04-18 19:43:00,
2013-04-18 15:53:00,59.0,55.0,30.09,SE,139,4.0,9.0,86,0.01,,,0.01,,2013-04-18 19:53:00,
2013-04-18 16:02:00,59.0,55.0,30.09,SE,139,4.0,9.0,86,0.01,,,0.01,,2013-04-18 20:02:00,
2013-04-18 16:12:00,58.0,54.0,30.07,East,99,5.0,15.0,87,0.01,,,0.01,,2013-04-18 20:12:00,
2013-04-18 16:22:00,58.0,54.0,30.07,East,99,5.0,15.0,87,0.01,,,0.01,,2013-04-18 20:22:00,
2013-04-18 16:32:00,58.0,54.0,30.07,East,99,5.0,15.0,87,0.01,,,0.01,,2013-04-18 20:32:00,
2013-04-18 16:42:00,59.0,55.0,30.07,ENE,57,3.0,14.0,86,0.00,,,0.01,,2013-04-18 20:42:00,
2013-04-18 16:52:00,59.0,55.0,30.07,ENE,57,3.0,14.0,86,0.00,,,0.01,,2013-04-18 20:52:00,
2013-04-18 17:02:00,59.0,55.0,30.07,ENE,57,3.0,14.0,86,0.00,,,0.01,,2013-04-18 21:02:00,
2013-04-18 17:12:00,59.0,55.0,30.07,SE,144,3.0,13.0,87,0.00,,,0.01,,2013-04-18 21:12:00,
2013-04-18 17:22:00,59.0,55.0,30.07,SE,144,3.0,13.0,87,0.00,,,0.01,,2013-04-18 21:22:00,
2013-04-18 17:33:00,59.0,55.0,30.07,SE,144,3.0,13.0,87,0.00,,,0.01,,2013-04-18 21:33:00,
2013-04-18 17:43:00,59.0,55.0,30.07,ESE,117,1.0,9.0,87,0.00,,,0.01,,2013-04-18 21:43:00,
2013-04-18 17:53:00,59.0,55.0,30.07,ESE,117,1.0,9.0,87,0.00,,,0.01,,2013-04-18 21:53:00,
2013-04-18 18:02:00,59.0,55.0,30.07,ESE,117,1.0,9.0,87,0.00,,,0.01,,2013-04-18 22:02:00,
2013-04-18 18:13:00,60.0,56.0,30.06,ESE,120,3.0,16.0,86,0.00,,,0.01,,2013-04-18 22:13:00,
2013-04-18 18:23:00,60.0,56.0,30.06,ESE,120,3.0,16.0,86,0.00,,,0.01,,2013-04-18 22:23:00,
2013-04-18 18:32:00,60.0,56.0,30.06,ESE,120,3.0,16.0,86,0.00,,,0.01,,2013-04-18 22:32:00,
2013-04-18 18:42:00,60.0,56.0,30.05,East,99,0.0,11.0,86,0.00,,,0.01,,2013-04-18 22:42:00,
2013-04-18 18:52:00,60.0,56.0,30.05,East,99,0.0,11.0,86,0.00,,,0.01,,2013-04-18 22:52:00,
2013-04-18 19:04:00,60.0,56.0,30.05,East,99,0.0,11.0,86,0.00,,,0.01,,2013-04-18 23:04:00,
2013-04-18 19:12:00,59.0,55.0,30.03,ESE,123,0.0,12.0,88,0.00,,,0.01,,2013-04-18 23:12:00,
2013-04-18 19:21:00,59.0,55.0,30.03,ESE,123,0.0,12.0,88,0.00,,,0.01,,2013-04-18 23:21:00,
2013-04-18 19:32:00,59.0,55.0,30.03,ESE,123,0.0,12.0,88,0.00,,,0.01,,2013-04-18 23:32:00,
2013-04-18 19:42:00,59.0,56.0,30.02,SE,131,5.0,12.0,89,0.00,,,0.01,,2013-04-18 23:42:00,
2013-04-18 19:52:00,59.0,56.0,30.02,SE,131,5.0,12.0,89,0.00,,,0.01,,2013-04-18 23:52:00,
2013-04-18 20:01:00,59.0,56.0,30.02,SE,131,5.0,12.0,89,0.00,,,0.01,,2013-04-19 00:01:00,
2013-04-18 20:12:00,59.0,56.0,30.01,SSE,147,0.0,15.0,89,0.00,,,0.01,,2013-04-19 00:12:00,
2013-04-18 20:22:00,59.0,56.0,30.01,SSE,147,0.0,15.0,89,0.00,,,0.01,,2013-04-19 00:22:00,
2013-04-18 20:32:00,59.0,56.0,30.01,SSE,147,0.0,15.0,89,0.00,,,0.01,,2013-04-19 00:32:00,
2013-04-18 20:42:00,59.0,56.0,29.99,SE,137,6.0,15.0,89,0.00,,,0.01,,2013-04-19 00:42:00,
2013-04-18 20:52:00,59.0,56.0,29.99,SE,137,6.0,15.0,89,0.00,,,0.01,,2013-04-19 00:52:00,
2013-04-18 21:01:00,59.0,56.0,29.99,SE,137,6.0,15.0,89,0.00,,,0.01,,2013-04-19 01:01:00,
2013-04-18 21:11:00,60.0,57.0,30.00,NNE,33,4.0,22.0,89,0.00,,,0.01,,2013-04-19 01:11:00,
2013-04-18 21:21:00,60.0,57.0,30.00,NNE,33,4.0,22.0,89,0.00,,,0.01,,2013-04-19 01:21:00,
2013-04-18 21:32:00,60.0,57.0,30.00,NNE,33,4.0,22.0,89,0.00,,,0.01,,2013-04-19 01:32:00,
2013-04-18 21:42:00,60.0,56.0,30.00,South,191,0.0,21.0,88,0.00,,,0.01,,2013-04-19 01:42:00,
2013-04-18 21:52:00,60.0,56.0,30.00,South,191,0.0,21.0,88,0.00,,,0.01,,2013-04-19 01:52:00,
2013-04-18 22:02:00,60.0,56.0,30.00,South,191,0.0,21.0,88,0.00,,,0.01,,2013-04-19 02:02:00,
2013-04-18 22:11:00,61.0,57.0,29.98,ESE,105,1.0,18.0,88,0.00,,,0.01,,2013-04-19 02:11:00,
2013-04-18 22:21:00,61.0,57.0,29.98,ESE,105,1.0,18.0,88,0.00,,,0.01,,2013-04-19 02:21:00,
2013-04-18 22:32:00,61.0,57.0,29.98,ESE,105,1.0,18.0,88,0.00,,,0.01,,2013-04-19 02:32:00,
2013-04-18 22:42:00,62.0,58.0,29.97,NNE,22,7.0,13.0,86,0.00,,,0.01,,2013-04-19 02:42:00,
2013-04-18 22:52:00,62.0,58.0,29.97,NNE,22,7.0,13.0,86,0.00,,,0.01,,2013-04-19 02:52:00,
2013-04-18 23:01:00,62.0,58.0,29.97,NNE,22,7.0,13.0,86,0.00,,,0.01,,2013-04-19 03:01:00,
2013-04-18 23:12:00,62.0,57.0,29.97,NNE,18,5.0,15.0,84,0.00,,,0.01,,2013-04-19 03:12:00,
2013-04-18 23:21:00,62.0,57.0,29.97,NNE,18,5.0,15.0,84,0.00,,,0.01,,2013-04-19 03:21:00,
2013-04-18 23:33:00,62.0,57.0,29.97,NNE,18,5.0,15.0,84,0.00,,,0.01,,2013-04-19 03:33:00,
2013-04-18 23:43:00,62.0,57.0,29.98,SSW,208,1.0,18.0,83,0.00,,,0.01,,2013-04-19 03:43:00,
2013-04-18 23:53:00,62.0,57.0,29.98,SSW,208,1.0,18.0,83,0.00,,,0.01,,2013-04-19 03:53:00,